Location: Culleoka
(33.1312°N, 96.4919°W)
Time: 12:18:40
(UTC+00:00)

Cosmos 1602 - Pass Details

Date: 08 December 2021
Orbit: 512 x 530 km, 82.5° (Epoch: 22 January)

Event Time Altitude Azimuth Distance (km) Brightness Sun altitude
Rises 12:43:18 0° 205° (SSW) 2,609 7.3 -7.3°
Reaches altitude 10° 12:45:34 10° 215° (SW) 1,727 6.2 -6.8°
Maximum altitude 12:49:00 33° 280° (W) 884 4.4 -6.2°
Drops below altitude 10° 12:52:27 10° 345° (NNW) 1,739 6.0 -5.5°
Sets 12:54:45 0° 356° (N) 2,630 7.0 -5.1°
